Location: *
(42.3442°N, 9.2072°E)
Time: 12:17:49
(UTC+00:00)

USA 234 - Pass Details

Date: 09 April 2020
Orbit: 1102 x 1106 km, 123.0° (Epoch: 14 May)

Event Time Altitude Azimuth Distance (km) Brightness Sun altitude
Rises 19:51:57 0° 51° (NE) 3,925 6.0 -20.2°
Reaches altitude 10° 19:54:33 10° 57° (ENE) 2,964 5.3 -20.6°
Maximum altitude 20:00:52 50° 132° (SE) 1,371 3.3 -21.6°
Drops below altitude 10° 20:07:10 10° 206° (SSW) 2,953 5.4 -22.5°
Sets 20:09:44 0° 212° (SSW) 3,909 6.1 -22.9°
